Theta_e
312 310 311 312 312 312 312 311 311 313 313 314 314 313 314 313 313 312 315 316 317 317 317 316 316 315 315 313 312 310 309 307 306 305 303 301 300 301 300 299 299 298 298 298
313 312 312 312 311 312 312 312 312 313 311 311 312 313 313 310 313 314 314 315 316 315 315 315 315 315 314 314 312 310 309 307 307 305 305 303 303 301 300 299 298 298 297 297
312 313 313 313 313 313 312 312 312 312 312 310 310 311 312 311 312 314 315 316 316 315 315 315 314 314 314 313 312 310 309 308 307 306 304 302 299 298 298 297 297 297 297 296
311 312 312 312 312 312 313 311 312 312 312 313 311 314 311 311 311 310 313 316 316 316 315 314 314 314 314 313 311 310 309 307 306 305 304 303 303 302 302 302 300 298 296 296
311 312 310 311 312 311 313 312 312 313 312 311 313 312 314 310 310 311 311 314 316 316 315 314 313 313 313 312 311 309 308 307 306 306 305 304 302 300 300 300 298 297 296 295
308 310 311 311 310 310 310 311 311 310 308 312 310 311 312 310 311 311 311 314 316 317 314 313 313 313 312 311 309 308 307 307 307 306 305 304 303 301 299 298 297 297 296 295
308 308 308 310 311 308 310 310 311 310 310 314 309 310 313 312 310 310 311 315 317 316 313 314 313 313 312 310 309 308 307 307 307 307 307 306 304 301 300 299 298 297 296 295
310 310 308 307 310 309 308 310 310 309 312 313 309 310 311 310 310 313 315 316 315 314 313 314 313 312 311 310 309 308 308 307 307 308 308 307 305 302 300 299 298 297 297 297
308 310 308 307 308 309 309 310 310 311 297 307 313 310 309 310 309 308 309 309 311 313 314 313 312 311 310 310 310 311 310 309 308 308 307 307 305 303 301 299 298 296 296 294
310 310 309 306 307 307 308 307 310 309 309 307 312 309 312 311 312 311 308 306 311 312 312 312 311 311 311 311 311 310 310 309 309 308 308 307 307 305 302 299 298 296 293 292
308 310 311 305 306 308 306 308 308 309 309 313 312 313 309 311 310 310 307 309 311 312 312 312 312 312 311 311 310 310 309 308 308 307 307 307 307 305 302 300 297 295 292 292
309 310 310 310 306 305 307 309 309 311 311 308 312 313 313 309 310 307 310 312 311 311 312 312 312 312 312 311 310 310 310 308 309 308 306 305 304 303 301 299 297 294 292 291
311 311 314 313 311 305 307 306 308 309 308 311 313 313 312 311 311 311 307 309 311 311 312 312 312 312 312 311 311 310 310 309 308 308 307 304 303 302 300 299 296 293 292 290
312 310 313 316 314 312 311 310 308 310 311 312 312 312 311 311 310 310 310 311 310 311 311 311 312 312 312 311 311 310 310 309 309 308 306 304 303 302 300 299 295 293 291 290
312 312 311 312 313 312 312 313 312 311 311 311 312 311 309 310 310 310 310 310 310 309 309 310 310 311 311 311 311 310 310 309 308 307 305 304 303 301 299 297 295 293 291 290
311 314 314 314 311 311 313 312 312 312 312 312 311 311 310 311 311 311 311 311 310 310 310 310 311 311 311 311 311 311 310 309 309 307 306 303 302 300 298 296 294 292 291 289
312 311 314 316 313 313 313 313 313 312 311 311 312 311 310 310 310 311 311 311 311 310 310 310 311 311 312 311 311 311 310 309 308 306 304 302 301 299 297 295 293 292 290 289
310 310 311 315 314 316 311 309 310 311 311 311 311 311 311 311 311 312 311 311 311 311 311 311 311 311 312 310 309 309 309 308 307 305 304 302 300 298 296 294 292 291 290 288
310 311 313 314 315 314 313 309 310 310 311 310 310 311 311 310 310 310 309 307 307 307 308 309 310 311 310 309 308 308 308 307 305 305 304 302 300 298 296 293 292 290 289 287
308 310 312 312 313 313 312 309 309 310 313 299 300 301 301 304 306 306 304 301 302 303 304 304 305 307 307 308 307 307 307 307 306 306 305 302 299 298 296 294 292 290 288 286
304 308 311 313 313 311 303 297 302 313 300 296 297 297 296 299 300 299 299 299 299 298 298 300 301 306 304 303 304 305 305 306 305 304 302 300 298 296 293 291 290 288 287 285
300 300 302 301 307 308 297 297 293 294 296 295 294 293 294 294 295 296 297 297 297 297 297 299 300 303 304 304 302 301 301 303 302 300 299 297 296 294 291 289 287 287 285 284
295 294 294 295 296 293 294 292 292 295 293 292 292 292 293 293 294 295 296 297 296 297 297 296 300 300 298 299 300 302 301 299 298 297 297 295 293 290 288 288 286 285 283 283
290 291 291 290 291 291 290 291 291 290 290 290 289 288 289 291 292 290 291 292 293 293 293 294 294 296 296 296 297 298 299 301 301 298 295 294 291 289 286 285 284 284 283 282
289 290 288 288 289 289 290 290 288 288 288 287 286 286 286 284 284 285 286 287 289 291 292 292 293 293 294 296 297 298 298 299 299 299 300 299 292 290 287 285 284 283 282 283
290 290 289 288 289 288 288 287 286 285 283 282 282 282 283 281 280 281 282 282 283 284 286 289 292 293 293 296 297 298 298 298 296 295 293 290 290 290 287 285 281 280 281 282
Wind_Speed
10 5 10 23 16 6 5 6 8 19 10 10 17 18 21 28 23 25 38 42 46 51 51 42 35 34 41 43 42 42 42 40 39 39 40 40 39 36 34 32 31 29 27 25
2 12 19 5 10 11 12 15 16 16 12 10 14 21 18 10 17 27 30 39 48 45 41 35 28 30 40 44 43 42 42 41 40 40 40 40 39 37 33 32 32 29 28 27
18 11 18 12 9 8 20 15 19 18 10 6 8 11 13 12 17 30 38 45 47 46 41 34 28 30 37 45 45 43 41 40 40 39 39 40 36 35 36 38 36 33 32 31
11 13 11 6 7 12 23 9 15 10 3 12 4 14 8 7 12 10 26 38 42 45 39 29 27 30 39 43 42 40 38 38 39 40 40 43 44 46 45 41 36 34 33 32
10 3 8 13 24 9 18 3 4 1 4 5 6 6 3 8 8 11 16 37 42 40 33 23 27 29 36 40 39 37 36 37 39 40 41 44 45 45 41 38 35 35 34 34
11 2 4 7 2 5 2 1 1 2 2 12 8 9 6 7 9 6 11 29 35 29 27 20 25 29 35 36 36 36 38 39 40 40 42 44 46 44 41 40 39 38 36 35
3 12 4 6 3 2 3 4 4 4 1 13 12 11 23 5 7 11 13 25 30 31 21 17 27 30 31 36 37 38 40 42 42 41 41 42 44 44 43 42 42 41 39 39
4 14 12 8 14 11 8 9 6 7 10 19 4 8 6 10 14 26 31 34 32 28 17 25 25 25 29 34 37 39 41 43 44 43 43 42 43 44 45 44 45 43 41 37
7 13 2 4 2 8 5 6 8 1 2 3 9 12 7 7 10 11 20 10 23 24 22 25 24 21 25 32 37 38 39 43 47 46 45 45 44 44 46 45 45 44 40 36
6 8 8 4 1 3 5 2 1 1 3 7 17 6 14 15 22 19 7 10 14 17 18 19 19 20 22 28 33 37 40 44 46 48 48 48 46 44 45 46 45 44 42 40
6 8 16 5 7 10 1 4 5 2 5 13 15 14 6 2 6 7 7 9 11 10 11 11 15 19 23 28 34 37 41 43 45 48 51 51 51 49 48 46 46 45 44 42
2 4 4 11 7 6 5 7 9 9 10 4 7 15 20 8 5 7 5 2 1 5 18 26 24 24 29 32 33 35 41 43 42 46 52 54 53 52 50 47 46 45 43 42
4 2 4 8 13 3 6 7 7 6 3 11 13 14 27 24 26 31 12 24 27 45 47 33 25 31 36 35 37 40 42 42 42 46 49 53 54 53 52 49 46 44 43 43
13 9 12 17 16 8 8 7 9 15 11 22 21 32 27 32 31 27 30 44 39 40 42 36 31 33 37 38 39 43 43 43 44 46 49 52 52 52 52 51 45 43 43 43
12 10 18 26 27 30 29 26 26 21 21 19 28 25 24 31 29 26 38 39 34 30 26 25 33 35 37 40 41 44 46 47 48 48 49 50 50 50 51 50 45 42 42 43
11 17 18 21 27 31 31 32 33 34 33 26 32 32 33 32 45 37 50 46 32 34 39 41 39 36 41 45 46 49 50 49 48 49 49 49 49 50 51 48 46 43 43 44
10 7 11 26 20 23 24 32 37 30 24 24 28 35 36 35 31 33 43 46 33 38 42 42 42 39 37 38 40 44 43 44 52 49 48 48 47 49 49 46 45 44 45 45
25 22 11 13 16 23 11 16 28 33 33 32 35 34 31 28 37 40 42 37 44 50 45 43 38 42 45 41 35 34 39 42 45 45 46 47 46 47 47 46 45 45 45 46
19 18 10 15 17 19 10 7 19 19 30 26 27 27 23 29 34 29 26 26 23 30 37 41 47 48 40 34 30 31 33 37 39 40 44 46 45 46 47 46 46 45 46 48
12 19 19 22 26 33 25 8 14 21 21 20 15 20 16 17 4 4 34 40 40 34 35 37 30 30 31 24 21 26 31 33 36 36 40 42 44 45 46 45 46 46 44 47
13 14 19 21 16 9 10 20 17 9 8 26 18 20 24 15 12 27 39 45 43 43 43 40 37 30 24 23 21 22 27 30 34 36 37 40 41 43 43 44 46 45 47 50
6 5 5 7 15 25 22 11 10 14 25 21 26 27 26 21 27 30 34 38 41 42 43 40 38 34 30 28 22 20 24 27 33 33 34 37 40 42 43 43 46 45 50 50
7 2 4 5 8 22 14 23 16 12 10 17 24 29 24 30 32 30 30 32 38 38 36 33 34 34 36 35 31 29 26 25 27 30 32 35 38 40 42 43 47 47 52 50
6 12 6 12 9 19 32 27 22 29 29 29 26 35 30 29 29 38 37 36 37 43 39 38 35 37 41 34 35 36 35 31 26 27 31 33 36 38 40 42 45 48 54 50
8 12 6 13 16 18 20 20 25 27 23 30 35 29 30 30 33 33 36 38 35 38 37 36 42 39 45 39 31 34 38 40 37 36 36 36 38 39 41 44 48 53 53 46
14 15 11 16 23 12 24 28 23 14 21 24 26 37 40 36 38 36 34 38 37 36 35 35 37 40 38 39 31 29 35 41 44 39 38 41 43 45 46 48 51 52 51 45
Wind_Direction
196 147 205 228 201 227 250 252 236 268 260 205 241 238 255 257 260 255 261 267 269 272 281 279 269 264 246 237 234 231 230 227 226 224 221 222 224 226 228 229 230 230 229 229
244 218 221 213 205 225 247 257 263 274 270 196 249 254 253 242 246 250 248 259 266 268 273 274 264 253 238 232 230 229 230 229 227 228 226 227 228 229 232 233 233 232 232 232
222 219 218 225 235 261 250 248 259 256 294 232 281 266 248 245 250 252 255 259 265 267 268 270 253 246 231 225 226 228 230 230 229 229 226 226 224 227 227 229 231 231 232 233
247 235 220 193 210 195 262 218 258 267 257 271 134 290 218 231 239 237 247 257 261 269 268 263 245 232 225 226 226 231 231 229 227 228 225 226 226 226 230 234 236 235 234 234
234 218 202 225 234 194 261 182 237 248 239 318 176 285 201 197 242 247 245 252 265 270 269 248 234 231 224 223 226 231 230 226 227 228 229 228 230 232 236 237 235 233 234 234
247 166 214 212 171 193 110 203 199 40 84 264 189 209 184 195 213 235 246 254 259 259 261 251 232 224 223 223 227 227 224 223 224 226 230 231 233 233 232 233 232 233 234 234
290 226 170 156 176 286 170 78 301 315 24 260 184 222 252 275 216 214 231 241 237 248 258 243 209 216 222 224 222 221 222 223 224 226 230 233 235 234 234 236 237 235 233 232
253 284 158 187 200 189 184 176 173 225 259 277 157 251 256 224 232 244 240 247 249 245 237 227 220 224 225 224 220 220 222 224 224 226 228 232 236 236 235 237 238 238 239 239
208 263 309 192 176 151 169 181 219 334 64 0 257 274 294 256 281 271 247 252 252 246 216 218 223 231 229 228 226 225 226 227 226 227 229 232 235 236 235 236 239 238 238 235
234 263 195 146 140 328 170 146 110 278 208 242 273 274 271 286 278 272 240 211 212 203 208 219 230 238 237 240 236 234 235 236 233 231 231 232 234 236 239 238 238 237 236 233
295 244 258 123 194 183 150 247 234 215 181 243 258 271 152 97 316 291 260 223 200 221 236 256 262 256 247 243 237 237 237 239 238 238 237 236 236 235 237 239 238 237 234 233
310 294 292 253 289 201 168 213 215 238 259 237 272 265 276 294 334 288 110 239 216 275 306 299 294 281 265 251 246 246 244 242 245 243 241 239 238 238 238 238 237 235 233 232
166 202 272 289 284 231 211 197 211 242 227 244 264 266 275 277 281 274 247 275 275 287 286 283 271 261 258 250 249 250 246 246 246 245 244 241 241 239 239 239 237 234 231 231
190 198 202 232 238 271 264 257 255 249 254 259 247 256 263 270 262 269 273 268 270 272 273 272 261 261 263 262 263 257 249 248 249 246 243 241 241 241 240 240 235 232 231 230
176 231 220 231 236 252 261 254 252 250 249 246 257 257 253 258 274 273 277 273 272 275 263 257 271 273 272 269 266 260 255 250 248 245 242 241 241 241 240 238 235 232 230 229
207 247 227 234 227 226 237 246 249 252 248 250 254 258 256 261 266 271 270 271 285 281 273 267 268 273 272 269 266 265 259 256 251 244 244 241 239 238 238 236 232 229 228 226
247 248 226 249 227 232 239 236 240 247 250 241 247 246 250 258 260 259 273 282 282 275 269 271 274 272 270 273 273 267 262 257 248 243 241 239 239 236 235 233 229 226 225 223
268 262 269 265 264 241 222 208 226 241 245 250 253 258 260 258 269 272 275 278 285 282 284 279 279 282 290 295 286 267 258 252 244 240 240 238 235 234 233 230 227 225 224 222
229 247 267 262 254 271 265 227 227 234 251 267 290 278 280 292 284 274 313 334 324 322 309 301 296 294 293 291 284 263 251 246 240 238 239 238 234 233 231 228 226 224 222 218
258 242 250 259 261 266 276 347 328 262 257 2 2 359 1 347 332 10 346 341 339 348 352 349 329 307 300 296 292 271 251 239 238 240 239 236 234 233 232 229 225 222 219 218
271 269 257 253 255 256 10 10 320 241 337 316 6 6 357 344 334 318 323 323 322 328 331 334 332 337 329 319 303 281 259 255 247 238 238 235 234 233 231 227 224 220 214 212
280 325 296 310 264 266 24 17 14 299 304 341 335 332 325 308 304 306 308 309 311 320 323 326 321 324 322 331 320 295 272 263 252 244 240 237 235 231 228 226 223 218 212 209
295 12 303 320 318 314 301 316 314 302 309 319 319 323 331 318 310 309 318 320 315 314 319 319 319 312 310 317 315 310 298 279 262 252 245 241 237 232 229 225 221 214 210 207
279 283 290 320 286 299 304 316 335 339 335 327 324 321 317 308 311 308 304 302 300 301 311 309 308 305 300 297 302 297 290 280 274 265 255 246 238 235 231 225 222 215 210 205
258 295 264 273 280 286 291 307 324 324 314 318 318 320 313 311 305 303 303 301 302 301 299 299 296 295 296 295 288 286 282 271 257 253 252 250 240 236 229 225 221 211 212 210
257 262 269 276 292 300 300 314 326 312 321 321 316 313 315 314 310 312 304 303 303 299 299 297 291 290 290 294 288 281 276 271 261 251 247 241 235 226 223 219 212 209 207 206